RYR225 ENBR-EGPH

Flight info

Callsign RYR225
Flight time 1h 12m
Altitude 30000
Route EPOTU DCT BEREP DCT ADN DCT NAXIL/N0406F240 P600 PTH
Aircraft B738/M-SDE2E3FGHIRWXY/LB1

Departure

Time 2026-05-06 17:38
Airport Bergen Airport, Flesland (ENBR)

Arrival

Time 2026-05-06 18:50
Airport Edinburgh Airport (EGPH)
Time Latitude Longitude Altitude Speed Heading
2026-05-06 16:49 60.28823 5.22615 169 ft 0 kts 30°
2026-05-06 17:22 60.28821 5.22613 169 ft 1 kts 30°
2026-05-06 17:22 60.28809 5.22596 169 ft 2 kts 36°
2026-05-06 17:23 60.28796 5.22579 169 ft 2 kts 33°
2026-05-06 17:23 60.28784 5.22562 169 ft 2 kts 34°
2026-05-06 17:23 60.28772 5.22545 168 ft 2 kts 33°
2026-05-06 17:23 60.28759 5.22528 168 ft 2 kts 34°
2026-05-06 17:24 60.28747 5.22511 168 ft 2 kts 34°
2026-05-06 17:24 60.28735 5.22494 168 ft 2 kts 34°
2026-05-06 17:24 60.28723 5.22478 168 ft 1 kts 34°
2026-05-06 17:24 60.28716 5.22471 167 ft 1 kts 354°
2026-05-06 17:25 60.28702 5.22476 167 ft 2 kts 358°
2026-05-06 17:25 60.28691 5.22475 167 ft 0 kts
2026-05-06 17:25 60.28685 5.22476 167 ft 0 kts 353°
2026-05-06 17:28 60.28699 5.22473 167 ft 7 kts 354°
2026-05-06 17:28 60.28783 5.22440 167 ft 14 kts 326°
2026-05-06 17:29 60.28839 5.22308 167 ft 12 kts 346°
2026-05-06 17:29 60.28926 5.22277 167 ft 12 kts 350°
2026-05-06 17:29 60.29008 5.22248 166 ft 12 kts 350°
2026-05-06 17:29 60.29092 5.22220 165 ft 12 kts 350°
2026-05-06 17:30 60.29179 5.22192 164 ft 13 kts 351°
2026-05-06 17:30 60.29292 5.22154 162 ft 19 kts 350°
2026-05-06 17:30 60.29434 5.22106 160 ft 20 kts 351°
2026-05-06 17:30 60.29579 5.22057 157 ft 21 kts 350°
2026-05-06 17:31 60.29726 5.22007 156 ft 21 kts 350°
2026-05-06 17:31 60.29870 5.21959 156 ft 20 kts 350°
2026-05-06 17:31 60.30006 5.21915 157 ft 19 kts 350°
2026-05-06 17:31 60.30132 5.21871 159 ft 17 kts 349°
2026-05-06 17:32 60.30238 5.21835 163 ft 14 kts 350°
2026-05-06 17:32 60.30335 5.21803 166 ft 15 kts 350°
2026-05-06 17:32 60.30447 5.21764 170 ft 17 kts 349°
2026-05-06 17:32 60.30572 5.21725 175 ft 15 kts 349°
2026-05-06 17:33 60.30594 5.21716 175 ft 0 kts 349°
2026-05-06 17:33 60.30626 5.21704 176 ft 11 kts 343°
2026-05-06 17:34 60.30662 5.21594 179 ft 0 kts 259°
2026-05-06 17:36 60.30662 5.21587 179 ft 3 kts 259°
2026-05-06 17:36 60.30647 5.21444 180 ft 13 kts 245°
2026-05-06 17:36 60.30574 5.21401 178 ft 0 kts 170°
2026-05-06 17:36 60.30573 5.21401 178 ft 0 kts 170°
2026-05-06 17:37 60.30570 5.21403 178 ft 3 kts 170°
2026-05-06 17:37 60.30361 5.21472 171 ft 64 kts 170°
2026-05-06 17:37 60.29705 5.21692 156 ft 123 kts 171°
2026-05-06 17:38 60.28708 5.22030 188 ft 165 kts 170°
2026-05-06 17:38 60.27576 5.22408 723 ft 168 kts 171°
2026-05-06 17:38 60.26413 5.22750 1340 ft 173 kts 172°
2026-05-06 17:38 60.25204 5.23154 1814 ft 184 kts 170°
2026-05-06 17:39 60.23903 5.23614 2174 ft 196 kts 171°
2026-05-06 17:39 60.22493 5.24094 2508 ft 213 kts 171°
2026-05-06 17:39 60.20993 5.24595 2890 ft 226 kts 171°
2026-05-06 17:39 60.19408 5.25123 3261 ft 240 kts 171°
2026-05-06 17:40 60.17735 5.25684 3864 ft 245 kts 171°
2026-05-06 17:40 60.16049 5.26251 4453 ft 251 kts 171°
2026-05-06 17:40 60.14311 5.26754 4953 ft 260 kts 179°
2026-05-06 17:40 60.12544 5.25946 5419 ft 266 kts 212°
2026-05-06 17:41 60.11258 5.23405 6057 ft 265 kts 241°
2026-05-06 17:41 60.10531 5.20064 6672 ft 266 kts 251°
2026-05-06 17:41 60.09900 5.16565 7334 ft 269 kts 251°
2026-05-06 17:41 60.09244 5.13079 8077 ft 268 kts 251°
2026-05-06 17:42 60.08568 5.09618 8741 ft 270 kts 250°
2026-05-06 17:42 60.07874 5.06139 9433 ft 271 kts 250°
2026-05-06 17:42 60.07176 5.02662 10081 ft 273 kts 250°
2026-05-06 17:42 60.06457 4.99082 10517 ft 283 kts 250°
2026-05-06 17:43 60.05714 4.95377 10878 ft 295 kts 250°
2026-05-06 17:43 60.04941 4.91530 11425 ft 301 kts 250°
2026-05-06 17:43 60.04163 4.87682 12108 ft 302 kts 250°
2026-05-06 17:43 60.03383 4.83833 12814 ft 302 kts 251°
2026-05-06 17:44 60.02594 4.79947 13568 ft 301 kts 251°
2026-05-06 17:44 60.01818 4.76125 14341 ft 300 kts 251°
2026-05-06 17:44 60.01035 4.72272 15074 ft 300 kts 251°
2026-05-06 17:44 60.00250 4.68428 15742 ft 302 kts 251°
2026-05-06 17:45 59.99459 4.64564 16422 ft 304 kts 251°
2026-05-06 17:45 59.98656 4.60630 17078 ft 306 kts 251°
2026-05-06 17:45 59.97859 4.56733 17741 ft 306 kts 252°
2026-05-06 17:45 59.97056 4.52821 18351 ft 308 kts 252°
2026-05-06 17:46 59.96246 4.48866 18943 ft 310 kts 252°
2026-05-06 17:46 59.95439 4.44927 19547 ft 312 kts 252°
2026-05-06 17:46 59.94613 4.40896 20155 ft 313 kts 252°
2026-05-06 17:46 59.93793 4.36911 20779 ft 314 kts 252°
2026-05-06 17:47 59.92960 4.32873 21332 ft 316 kts 251°
2026-05-06 17:47 59.92133 4.28879 21898 ft 317 kts 251°
2026-05-06 17:47 59.91286 4.24795 22422 ft 319 kts 251°
2026-05-06 17:47 59.90445 4.20755 22963 ft 321 kts 251°
2026-05-06 17:48 59.89592 4.16665 23487 ft 322 kts 251°
2026-05-06 17:48 59.88720 4.12491 24018 ft 323 kts 251°
2026-05-06 17:48 59.87798 4.08364 24469 ft 327 kts 248°
2026-05-06 17:48 59.86680 4.04383 24962 ft 331 kts 243°
2026-05-06 17:49 59.85424 4.00584 25366 ft 335 kts 241°
2026-05-06 17:49 59.84087 3.96753 25752 ft 339 kts 240°
2026-05-06 17:49 59.82732 3.92906 26114 ft 342 kts 240°
2026-05-06 17:49 59.81367 3.89022 26531 ft 344 kts 240°
2026-05-06 17:50 59.80001 3.85117 26924 ft 346 kts 240°
2026-05-06 17:50 59.78640 3.81209 27259 ft 349 kts 240°
2026-05-06 17:50 59.77264 3.77253 27562 ft 353 kts 240°
2026-05-06 17:50 59.75879 3.73272 27956 ft 354 kts 240°
2026-05-06 17:51 59.74475 3.69241 28268 ft 357 kts 240°
2026-05-06 17:51 59.73059 3.65179 28579 ft 360 kts 240°
2026-05-06 17:51 59.71632 3.61090 28881 ft 363 kts 240°
2026-05-06 17:51 59.70193 3.56977 29200 ft 365 kts 240°
2026-05-06 17:52 59.68787 3.52966 29460 ft 367 kts 240°
2026-05-06 17:52 59.67753 3.50022 29628 ft 370 kts 240°
2026-05-06 17:52 59.66277 3.45825 29880 ft 373 kts 240°
2026-05-06 17:52 59.64802 3.41638 30032 ft 376 kts 240°
2026-05-06 17:53 59.61832 3.33230 30030 ft 375 kts 239°
2026-05-06 17:53 59.58837 3.24772 30040 ft 375 kts 239°
2026-05-06 17:54 59.55857 3.16390 30031 ft 373 kts 240°
2026-05-06 17:54 59.52833 3.07893 30034 ft 387 kts 240°
2026-05-06 17:55 59.49694 2.99100 30034 ft 401 kts 239°
2026-05-06 17:55 59.46439 2.90029 30038 ft 415 kts 239°
2026-05-06 17:56 59.43070 2.80689 30044 ft 421 kts 239°
2026-05-06 17:56 59.39705 2.71422 30033 ft 419 kts 239°
2026-05-06 17:57 59.36314 2.62106 30032 ft 420 kts 239°
2026-05-06 17:57 59.32934 2.52850 30034 ft 421 kts 239°
2026-05-06 17:58 59.29539 2.43586 30045 ft 421 kts 239°
2026-05-06 17:58 59.26133 2.34329 30039 ft 422 kts 239°
2026-05-06 17:59 59.22699 2.25026 30041 ft 423 kts 239°
2026-05-06 17:59 59.19240 2.15691 30040 ft 429 kts 239°
2026-05-06 18:00 59.15724 2.06230 30038 ft 433 kts 239°
2026-05-06 18:00 59.12225 1.96875 30046 ft 432 kts 239°
2026-05-06 18:01 59.08669 1.87403 30045 ft 433 kts 239°
2026-05-06 18:01 59.05139 1.78034 30042 ft 433 kts 239°
2026-05-06 18:02 59.01545 1.68606 30029 ft 435 kts 238°
2026-05-06 18:02 58.97857 1.59311 30027 ft 435 kts 238°
2026-05-06 18:03 58.94154 1.50085 30043 ft 435 kts 238°
2026-05-06 18:03 58.90462 1.40898 30049 ft 436 kts 238°
2026-05-06 18:04 58.86764 1.31711 30047 ft 437 kts 237°
2026-05-06 18:04 58.85832 1.29397 30048 ft 438 kts 237°
2026-05-06 18:05 58.82458 1.21037 30049 ft 436 kts 237°
2026-05-06 18:05 58.78737 1.11847 30052 ft 438 kts 237°
2026-05-06 18:06 58.74997 1.02645 30047 ft 437 kts 237°
2026-05-06 18:06 58.71278 0.93525 30043 ft 437 kts 237°
2026-05-06 18:07 58.67506 0.84314 30042 ft 438 kts 237°
2026-05-06 18:07 58.63746 0.75169 30039 ft 438 kts 237°
2026-05-06 18:08 58.59946 0.65961 30028 ft 439 kts 237°
2026-05-06 18:08 58.56159 0.56827 30033 ft 440 kts 237°
2026-05-06 18:09 58.52374 0.47730 30031 ft 439 kts 237°
2026-05-06 18:09 58.48574 0.38630 30031 ft 440 kts 237°
2026-05-06 18:10 58.44745 0.29494 30029 ft 441 kts 236°
2026-05-06 18:10 58.40911 0.20383 30025 ft 441 kts 236°
2026-05-06 18:11 58.37065 0.11280 30023 ft 443 kts 236°
2026-05-06 18:11 58.33230 0.02237 30026 ft 443 kts 237°
2026-05-06 18:12 58.29359 -0.06855 30028 ft 442 kts 237°
2026-05-06 18:12 58.25500 -0.15888 30024 ft 442 kts 236°
2026-05-06 18:13 58.21642 -0.24884 30030 ft 443 kts 236°
2026-05-06 18:13 58.17767 -0.33884 30026 ft 442 kts 236°
2026-05-06 18:14 58.13881 -0.42877 30034 ft 443 kts 236°
2026-05-06 18:14 58.09998 -0.51821 30034 ft 443 kts 236°
2026-05-06 18:15 58.06097 -0.60777 30032 ft 443 kts 236°
2026-05-06 18:15 58.02171 -0.69753 30030 ft 445 kts 236°
2026-05-06 18:16 57.98249 -0.78686 30026 ft 444 kts 236°
2026-05-06 18:16 57.94307 -0.87627 30021 ft 444 kts 236°
2026-05-06 18:17 57.90380 -0.96503 30023 ft 445 kts 236°
2026-05-06 18:17 57.86419 -1.05423 30027 ft 447 kts 236°
2026-05-06 18:18 57.82433 -1.14365 30026 ft 446 kts 236°
2026-05-06 18:18 57.78471 -1.23222 30023 ft 446 kts 236°
2026-05-06 18:19 57.74461 -1.32149 30027 ft 448 kts 236°
2026-05-06 18:19 57.70474 -1.40986 30021 ft 447 kts 236°
2026-05-06 18:20 57.66465 -1.49846 30020 ft 447 kts 236°
2026-05-06 18:20 57.62459 -1.58668 30017 ft 448 kts 236°
2026-05-06 18:21 57.58430 -1.67512 30023 ft 449 kts 235°
2026-05-06 18:21 57.54409 -1.76296 30013 ft 449 kts 235°
2026-05-06 18:22 57.50332 -1.85176 30015 ft 450 kts 235°
2026-05-06 18:22 57.46279 -1.93969 30013 ft 450 kts 235°
2026-05-06 18:23 57.42208 -2.02767 30004 ft 450 kts 235°
2026-05-06 18:23 57.38121 -2.11571 30000 ft 450 kts 234°
2026-05-06 18:24 57.34039 -2.20316 30006 ft 449 kts 234°
2026-05-06 18:24 57.29668 -2.28599 30009 ft 458 kts 226°
2026-05-06 18:25 57.24600 -2.35733 30009 ft 462 kts 221°
2026-05-06 18:25 57.19311 -2.42416 30008 ft 464 kts 220°
2026-05-06 18:26 57.13980 -2.49094 29995 ft 455 kts 220°
2026-05-06 18:26 57.11410 -2.52316 29995 ft 437 kts 221°
2026-05-06 18:26 57.08952 -2.55407 29805 ft 424 kts 221°
2026-05-06 18:27 57.06556 -2.58442 29413 ft 417 kts 221°
2026-05-06 18:27 57.04201 -2.61439 29089 ft 408 kts 221°
2026-05-06 18:27 57.01911 -2.64364 28651 ft 403 kts 221°
2026-05-06 18:27 56.99638 -2.67273 28129 ft 400 kts 221°
2026-05-06 18:28 56.97360 -2.70193 27570 ft 398 kts 221°
2026-05-06 18:28 56.95122 -2.73059 27020 ft 396 kts 220°
2026-05-06 18:28 56.92862 -2.75944 26460 ft 393 kts 220°
2026-05-06 18:28 56.90693 -2.78706 25916 ft 391 kts 220°
2026-05-06 18:29 56.88494 -2.81500 25360 ft 389 kts 220°
2026-05-06 18:29 56.86271 -2.84324 24802 ft 386 kts 220°
2026-05-06 18:29 56.84078 -2.87105 24243 ft 384 kts 220°
2026-05-06 18:29 56.81895 -2.89870 23694 ft 381 kts 219°
2026-05-06 18:30 56.79760 -2.92570 23147 ft 379 kts 219°
2026-05-06 18:30 56.77596 -2.95301 22590 ft 376 kts 219°
2026-05-06 18:30 56.75451 -2.98006 22046 ft 373 kts 219°
2026-05-06 18:30 56.73344 -3.00658 21508 ft 371 kts 218°
2026-05-06 18:31 56.71217 -3.03331 20955 ft 369 kts 218°
2026-05-06 18:31 56.69118 -3.05965 20417 ft 366 kts 218°
2026-05-06 18:31 56.67020 -3.08599 19873 ft 363 kts 218°
2026-05-06 18:31 56.64962 -3.11175 19335 ft 361 kts 218°
2026-05-06 18:32 56.62904 -3.13746 18802 ft 358 kts 217°
2026-05-06 18:32 56.60857 -3.16294 18275 ft 356 kts 217°
2026-05-06 18:32 56.58849 -3.18786 17750 ft 353 kts 217°
2026-05-06 18:32 56.56826 -3.21296 17217 ft 350 kts 217°
2026-05-06 18:33 56.54852 -3.23741 16696 ft 347 kts 217°
2026-05-06 18:33 56.52863 -3.26203 16172 ft 344 kts 217°
2026-05-06 18:33 56.50910 -3.28620 15649 ft 341 kts 217°
2026-05-06 18:33 56.48970 -3.31018 15126 ft 338 kts 217°
2026-05-06 18:34 56.47051 -3.33392 14623 ft 335 kts 216°
2026-05-06 18:34 56.45130 -3.35765 14110 ft 332 kts 216°
2026-05-06 18:34 56.43232 -3.38125 13594 ft 330 kts 217°
2026-05-06 18:34 56.41381 -3.40500 13087 ft 327 kts 218°
2026-05-06 18:35 56.39550 -3.42892 12581 ft 325 kts 218°
2026-05-06 18:35 56.37735 -3.45282 12069 ft 323 kts 218°
2026-05-06 18:35 56.35931 -3.47660 11562 ft 321 kts 218°
2026-05-06 18:35 56.34128 -3.50021 11064 ft 320 kts 217°
2026-05-06 18:36 56.32344 -3.52339 10638 ft 316 kts 217°
2026-05-06 18:36 56.30601 -3.54587 10388 ft 307 kts 217°
2026-05-06 18:36 56.28889 -3.56787 10267 ft 294 kts 217°
2026-05-06 18:36 56.27275 -3.58862 10157 ft 282 kts 217°
2026-05-06 18:37 56.25706 -3.60874 9943 ft 274 kts 217°
2026-05-06 18:37 56.24155 -3.62863 9581 ft 273 kts 217°
2026-05-06 18:37 56.22631 -3.64818 9238 ft 270 kts 217°
2026-05-06 18:37 56.21096 -3.66787 8893 ft 268 kts 216°
2026-05-06 18:38 56.19636 -3.68824 8565 ft 265 kts 223°
2026-05-06 18:38 56.18475 -3.71136 8262 ft 262 kts 232°
2026-05-06 18:38 56.17397 -3.73757 7935 ft 260 kts 234°
2026-05-06 18:38 56.16415 -3.76224 7624 ft 258 kts 233°
2026-05-06 18:39 56.15370 -3.78801 7304 ft 256 kts 233°
2026-05-06 18:39 56.14240 -3.81269 7014 ft 251 kts 223°
2026-05-06 18:39 56.12800 -3.82832 6947 ft 243 kts 195°
2026-05-06 18:40 56.09412 -3.82591 6488 ft 243 kts 173°
2026-05-06 18:40 56.07754 -3.82186 6236 ft 242 kts 174°
2026-05-06 18:40 56.06081 -3.81824 5976 ft 242 kts 174°
2026-05-06 18:40 56.04406 -3.81477 5715 ft 241 kts 174°
2026-05-06 18:41 56.02744 -3.81131 5457 ft 240 kts 174°
2026-05-06 18:41 56.01099 -3.80784 5203 ft 239 kts 174°
2026-05-06 18:41 55.99437 -3.80435 4941 ft 238 kts 174°
2026-05-06 18:41 55.97795 -3.80093 4684 ft 237 kts 173°
2026-05-06 18:42 55.96173 -3.79755 4433 ft 235 kts 174°
2026-05-06 18:42 55.94545 -3.79412 4189 ft 233 kts 173°
2026-05-06 18:42 55.92966 -3.79077 3974 ft 227 kts 173°
2026-05-06 18:42 55.91441 -3.78756 3954 ft 212 kts 173°
2026-05-06 18:43 55.90027 -3.78459 3957 ft 197 kts 173°
2026-05-06 18:43 55.88687 -3.78179 3964 ft 187 kts 173°
2026-05-06 18:43 55.87425 -3.77914 3963 ft 178 kts 174°
2026-05-06 18:43 55.86218 -3.77661 3959 ft 174 kts 174°
2026-05-06 18:44 55.85046 -3.77350 3959 ft 174 kts 166°
2026-05-06 18:44 55.84127 -3.76518 3956 ft 177 kts 137°
2026-05-06 18:44 55.83462 -3.74668 3964 ft 181 kts 110°
2026-05-06 18:44 55.83355 -3.72451 3959 ft 184 kts 79°
2026-05-06 18:45 55.83722 -3.70594 3961 ft 185 kts 66°
2026-05-06 18:45 55.84347 -3.68452 3957 ft 185 kts 62°
2026-05-06 18:45 55.85005 -3.66454 3865 ft 188 kts 60°
2026-05-06 18:45 55.85679 -3.64482 3579 ft 187 kts 60°
2026-05-06 18:46 55.86356 -3.62519 3285 ft 185 kts 60°
2026-05-06 18:46 55.87019 -3.60593 3030 ft 182 kts 60°
2026-05-06 18:46 55.87663 -3.58717 2803 ft 168 kts 60°
2026-05-06 18:46 55.88252 -3.57002 2540 ft 162 kts 60°
2026-05-06 18:47 55.88828 -3.55320 2317 ft 155 kts 60°
2026-05-06 18:47 55.89380 -3.53711 2101 ft 151 kts 61°
2026-05-06 18:47 55.89919 -3.52134 1899 ft 149 kts 61°
2026-05-06 18:47 55.90462 -3.50546 1690 ft 148 kts 61°
2026-05-06 18:48 55.90985 -3.49023 1517 ft 144 kts 61°
2026-05-06 18:48 55.91510 -3.47476 1300 ft 143 kts 61°
2026-05-06 18:48 55.92030 -3.45981 1044 ft 139 kts 60°
2026-05-06 18:48 55.92520 -3.44548 862 ft 136 kts 62°
2026-05-06 18:49 55.93019 -3.43084 786 ft 137 kts 60°
2026-05-06 18:49 55.93520 -3.41596 576 ft 141 kts 60°
2026-05-06 18:49 55.94035 -3.40099 347 ft 140 kts 60°
2026-05-06 18:49 55.94528 -3.38634 147 ft 136 kts 59°
2026-05-06 18:50 55.94973 -3.37318 105 ft 103 kts 58°
2026-05-06 18:50 55.95248 -3.36511 105 ft 51 kts 58°
2026-05-06 18:50 55.95409 -3.36036 105 ft 41 kts 58°
2026-05-06 18:50 55.95533 -3.35669 105 ft 28 kts 58°
2026-05-06 18:51 55.95531 -3.35479 105 ft 12 kts 146°
2026-05-06 18:51 55.95496 -3.35440 105 ft 4 kts 148°
2026-05-06 18:51 55.95493 -3.35438 105 ft 0 kts 148°
2026-05-06 18:52 55.95468 -3.35410 105 ft 9 kts 148°
2026-05-06 18:52 55.95394 -3.35382 106 ft 7 kts 227°
2026-05-06 18:53 55.95379 -3.35412 106 ft 3 kts 227°
2026-05-06 18:53 55.95364 -3.35481 106 ft 9 kts 261°
2026-05-06 18:53 55.95356 -3.35620 106 ft 14 kts 249°
2026-05-06 18:53 55.95283 -3.35840 106 ft 22 kts 239°
2026-05-06 18:54 55.95209 -3.36059 105 ft 20 kts 238°
2026-05-06 18:54 55.95138 -3.36269 105 ft 18 kts 238°
2026-05-06 18:54 55.95072 -3.36397 105 ft 13 kts 176°
2026-05-06 18:54 55.94999 -3.36445 105 ft 9 kts 238°
2026-05-06 18:55 55.94968 -3.36478 105 ft 5 kts 165°
2026-05-06 18:55 55.94941 -3.36452 105 ft 2 kts 147°
2026-05-06 18:55 55.94928 -3.36438 105 ft 1 kts 148°
2026-05-06 18:55 55.94923 -3.36431 105 ft 0 kts 148°